Location: Raleigh
(35.7720°N, 78.6390°W)
Time: 22:47:05
(UTC-04:00)

Amateur Radio Satellites - All Passes

Search period start: 20 April 2014 22:17
Search period end: 21 April 2014 22:17
Location: Raleigh, 35.7720°N, 78.6390°W

Satellite Date Start Highest point End Downlink Frequencies (MHz)
Time Altitude Azimuth
MaSat-1 20 Apr 22:18:10 22:20:26 20° 296° (WNW) 22:22:32 437.345 MHz
FUNcube-1 20 Apr 22:21:32 22:24:59 25° 71° (ENE) 22:28:25 145.950 - 145.970 MHz USB
Oscar 11 20 Apr 22:26:22 22:30:39 77° 258° (WSW) 22:34:59 145.825 FM, Beacon 2401.500 USB
HO-68 20 Apr 22:35:27 22:41:52 36° 262° (W) 22:48:21 435.675 MHz FM
ISS 20 Apr 23:06:46 23:09:46 30° 228° (SW) 23:12:44 145.800 FM
Sapphire 20 Apr 23:51:38 23:56:04 27° 107° (ESE) 00:00:32 437.095 MHz 1200 baud AX-25 AFSK
FUNcube-1 20 Apr 23:58:06 00:01:21 22° 264° (W) 00:04:35 145.950 - 145.970 MHz USB
SO-50 21 Apr 00:10:30 00:14:40 31° 53° (NE) 00:18:52 436.795 FM
PCSat 21 Apr 00:35:14 00:40:36 75° 114° (ESE) 00:46:01 145.825 MHz
Oscar 10/S400 21 Apr 01:02:55 01:14:38 17° 135° (SE) 01:30:04 145.825 - 145.975 CW/USB, Beacon 145.810 USB
Sapphire 21 Apr 01:34:20 01:39:17 36° 303° (WNW) 01:44:17 437.095 MHz 1200 baud AX-25 AFSK
SO-50 21 Apr 01:51:15 01:55:06 26° 248° (WSW) 01:58:59 436.795 FM
Oscar 19 21 Apr 01:55:08 01:58:57 20° 94° (E) 02:02:44 437.125 CW, 437.150 USB
Oscar 16 21 Apr 02:03:15 02:07:36 27° 96° (E) 02:11:56 437.025 USB, Beacon 2401.1428
OPAL 21 Apr 02:05:12 02:08:50 20° 64° (ENE) 02:12:29 ?
PCSat 21 Apr 02:21:27 02:24:36 15° 312° (NW) 02:27:46 145.825 MHz
UOSAT-12 21 Apr 02:24:54 02:29:20 38° 55° (NE) 02:33:42 437.025 FM, 437.400 FM
KITSAT 1 21 Apr 02:37:49 02:45:42 59° 112° (ESE) 02:53:38 435.175 FM
Uribyol 2 21 Apr 02:41:09 02:45:44 31° 97° (E) 02:50:18 436.500 FM
AO-27 21 Apr 03:21:46 03:26:58 79° 103° (ESE) 03:32:08 436.795 MHz FM
AO-Echo 21 Apr 03:22:57 03:27:40 63° 101° (E) 03:32:18 ?
Gurwin Techsat 1B 21 Apr 03:23:56 03:28:10 24° 95° (E) 03:32:21 435.225 FM
ITAMSAT 1 21 Apr 03:32:03 03:37:15 84° 284° (WNW) 03:42:25 435.822 SSB
Oscar 19 21 Apr 03:33:32 03:38:24 41° 289° (WNW) 03:43:15 437.125 CW, 437.150 USB
Oscar 16 21 Apr 03:42:21 03:46:55 32° 291° (WNW) 03:51:28 437.025 USB, Beacon 2401.1428
OPAL 21 Apr 03:42:37 03:47:22 43° 259° (W) 03:52:12 ?
AO-7 21 Apr 03:59:09 04:00:34 11° 89° (E) 04:01:59 29.400 - 29.500 MHz
UOSAT-12 21 Apr 04:05:43 04:09:12 21° 250° (WSW) 04:12:39 437.025 FM, 437.400 FM
TMSAT-1 21 Apr 04:10:24 04:15:31 48° 100° (E) 04:20:36 436.925 FM
Uribyol 2 21 Apr 04:20:46 04:25:04 27° 292° (WNW) 04:29:22 436.500 FM
KITSAT 1 21 Apr 04:34:32 04:41:30 31° 311° (NW) 04:48:32 435.175 FM
RS-15 21 Apr 05:00:28 05:06:13 16° 99° (E) 05:11:52 29.354 - 29.394 USB, Beacon 29.352 USB
Gurwin Techsat 1B 21 Apr 05:03:20 05:08:10 37° 290° (WNW) 05:12:59 435.225 FM
AO-27 21 Apr 05:04:08 05:05:46 11° 298° (WNW) 05:07:24 436.795 MHz FM
AO-Echo 21 Apr 05:04:08 05:05:51 12° 297° (WNW) 05:07:34 ?
JAS-1B 21 Apr 05:13:58 05:19:39 83° 104° (ESE) 05:25:45 435.800 - 435.900 CW/SSB
Uosat F 21 Apr 05:21:14 05:26:16 85° 103° (ESE) 05:31:15 435.120 FM
AO-7 21 Apr 05:46:10 05:54:30 73° 105° (ESE) 06:02:49 29.400 - 29.500 MHz
TMSAT-1 21 Apr 05:51:25 05:55:01 19° 295° (WNW) 05:58:38 436.925 FM
STRAND 1 21 Apr 06:23:55 06:28:18 30° 69° (ENE) 06:32:40 ?
AO-40 21 Apr 06:35:13 10:18:22 29° 135° (SE) 11:48:34 Beacon 2401.320
MaSat-1 21 Apr 06:43:12 06:45:37 20° 64° (ENE) 06:48:20 437.345 MHz
Hamsat 21 Apr 06:59:41 07:03:45 37° 98° (E) 07:07:47 145.90 MHz
RS-15 21 Apr 07:05:26 07:16:51 81° 116° (ESE) 07:27:52 29.354 - 29.394 USB, Beacon 29.352 USB
JAS-1B 21 Apr 07:08:21 07:09:37 11° 300° (WNW) 07:10:55 435.800 - 435.900 CW/SSB
AO-7 21 Apr 07:40:20 07:46:29 24° 303° (WNW) 07:52:39 29.400 - 29.500 MHz
PANSAT 21 Apr 07:49:00 07:51:23 16° 163° (SSE) 07:53:46 not established
STRAND 1 21 Apr 08:03:03 08:07:24 28° 263° (W) 08:11:45 ?
MaSat-1 21 Apr 08:21:39 08:23:54 17° 251° (WSW) 08:26:25 437.345 MHz
JAS-2 21 Apr 08:24:26 08:29:58 84° 103° (ESE) 08:36:09 435.800 - 435.900 CW/SSB, 435.910 FM
Hamsat 21 Apr 08:36:37 08:39:25 17° 292° (WNW) 08:42:13 145.90 MHz
Sapphire 21 Apr 08:43:11 08:45:56 14° 47° (NE) 08:48:39 437.095 MHz 1200 baud AX-25 AFSK
SO-67 21 Apr 08:46:46 08:50:11 53° 284° (WNW) 08:53:35 435.3500 MHz FM
RS-15 21 Apr 09:21:01 09:30:24 30° 319° (NW) 09:39:38 29.354 - 29.394 USB, Beacon 29.352 USB
PCSat 21 Apr 09:26:25 09:31:16 33° 56° (NE) 09:36:06 145.825 MHz
PANSAT 21 Apr 09:27:48 09:31:05 26° 176° (S) 09:34:22 not established
Saudisat 1A 21 Apr 09:41:59 09:43:33 12° 107° (ESE) 09:45:07 436.775 MHz
HO-68 21 Apr 10:05:24 10:12:23 52° 101° (E) 10:19:19 435.675 MHz FM
JAS-2 21 Apr 10:12:44 10:14:30 12° 297° (WNW) 10:16:19 435.800 - 435.900 CW/SSB, 435.910 FM
Oscar 11 21 Apr 10:17:33 10:21:05 24° 96° (E) 10:24:35 145.825 FM, Beacon 2401.500 USB
Sapphire 21 Apr 10:24:36 10:30:02 85° 245° (WSW) 10:35:26 437.095 MHz 1200 baud AX-25 AFSK
KITSAT 1 21 Apr 10:35:15 10:40:47 19° 41° (NE) 10:46:16 435.175 FM
PANSAT 21 Apr 11:07:43 11:10:52 24° 189° (S) 11:14:00 not established
PCSat 21 Apr 11:09:54 11:14:35 30° 252° (WSW) 11:19:14 145.825 MHz
Saudisat 1A 21 Apr 11:18:13 11:22:37 60° 302° (WNW) 11:27:02 436.775 MHz
RS-15 21 Apr 11:44:10 11:48:12 12° 354° (N) 11:52:13 29.354 - 29.394 USB, Beacon 29.352 USB
FUNcube-1 21 Apr 11:48:48 11:53:06 85° 102° (ESE) 11:57:30 145.950 - 145.970 MHz USB
Oscar 11 21 Apr 11:53:35 11:57:11 26° 290° (WNW) 12:00:46 145.825 FM, Beacon 2401.500 USB
HO-68 21 Apr 11:53:50 11:59:40 28° 297° (WNW) 12:05:31 435.675 MHz FM
KITSAT 1 21 Apr 12:29:17 12:37:25 83° 62° (ENE) 12:45:29 435.175 FM
PANSAT 21 Apr 12:49:10 12:50:30 11° 201° (SSW) 12:51:49 not established
Oscar 19 21 Apr 13:09:28 13:13:24 23° 67° (ENE) 13:17:21 437.125 CW, 437.150 USB
ITAMSAT 1 21 Apr 13:11:40 13:13:35 12° 62° (ENE) 13:15:30 435.822 SSB
Oscar 16 21 Apr 13:17:36 13:21:58 29° 69° (ENE) 13:26:23 437.025 USB, Beacon 2401.1428
Uribyol 2 21 Apr 13:56:21 14:01:01 36° 70° (ENE) 14:05:41 436.500 FM
RS-15 21 Apr 13:59:10 14:06:58 21° 32° (NNE) 14:14:49 29.354 - 29.394 USB, Beacon 29.352 USB
Oscar 10/S400 21 Apr 14:03:51 15:25:57 23° 269° (W) 18:04:06 145.825 - 145.975 CW/USB, Beacon 145.810 USB
ISS 21 Apr 14:10:33 14:13:34 33° 132° (SE) 14:16:37 145.800 FM
SO-50 21 Apr 14:24:07 14:27:11 18° 110° (ESE) 14:30:16 436.795 FM
KITSAT 1 21 Apr 14:26:58 14:31:47 17° 259° (WSW) 14:36:35 435.175 FM
AO-Echo 21 Apr 14:32:32 14:37:42 62° 74° (ENE) 14:42:45 ?
AO-27 21 Apr 14:37:03 14:42:15 88° 76° (ENE) 14:47:28 436.795 MHz FM
Gurwin Techsat 1B 21 Apr 14:42:17 14:46:47 29° 69° (ENE) 14:51:17 435.225 FM
ITAMSAT 1 21 Apr 14:47:14 14:52:24 75° 257° (WSW) 14:57:35 435.822 SSB
Oscar 19 21 Apr 14:47:44 14:52:28 38° 262° (W) 14:57:16 437.125 CW, 437.150 USB
AO-7 21 Apr 14:54:26 14:58:32 15° 52° (NE) 15:02:37 29.400 - 29.500 MHz
Oscar 16 21 Apr 14:56:51 15:01:14 29° 264° (W) 15:05:40 437.025 USB, Beacon 2401.1428
TMSAT-1 21 Apr 15:28:18 15:33:27 57° 73° (ENE) 15:38:38 436.925 FM
Uribyol 2 21 Apr 15:36:28 15:40:31 23° 265° (W) 15:44:35 436.500 FM
ISS 21 Apr 15:47:36 15:50:20 23° 328° (NNW) 15:53:06 145.800 FM
JAS-1B 21 Apr 15:54:42 16:02:40 58° 73° (ENE) 16:09:19 435.800 - 435.900 CW/SSB
OPAL 21 Apr 15:54:58 16:00:10 64° 104° (ESE) 16:05:19 ?
SO-50 21 Apr 16:03:15 16:07:26 39° 305° (NW) 16:11:40 436.795 FM
RS-15 21 Apr 16:10:42 16:21:40 71° 58° (ENE) 16:32:56 29.354 - 29.394 USB, Beacon 29.352 USB
AO-Echo 21 Apr 16:14:18 16:16:46 13° 268° (W) 16:19:13 ?
Gurwin Techsat 1B 21 Apr 16:22:00 16:26:38 31° 263° (W) 16:31:17 435.225 FM
Uosat F 21 Apr 16:31:35 16:36:36 86° 76° (ENE) 16:41:39 435.120 FM
UOSAT-12 21 Apr 16:34:22 16:37:48 21° 110° (ESE) 16:41:16 437.025 FM, 437.400 FM
AO-7 21 Apr 16:41:42 16:49:56 75° 70° (ENE) 16:58:12 29.400 - 29.500 MHz
TMSAT-1 21 Apr 17:10:44 17:13:41 15° 268° (W) 17:16:39 436.925 FM
OPAL 21 Apr 17:35:38 17:38:28 15° 299° (WNW) 17:41:17 ?
JAS-1B 21 Apr 17:47:05 17:53:19 24° 263° (W) 17:58:52 435.800 - 435.900 CW/SSB
Hamsat 21 Apr 17:51:23 17:54:20 19° 69° (ENE) 17:57:18 145.90 MHz
UOSAT-12 21 Apr 18:13:31 18:17:41 35° 306° (NW) 18:21:58 437.025 FM, 437.400 FM
RS-15 21 Apr 18:24:24 18:33:01 28° 256° (WSW) 18:41:53 29.354 - 29.394 USB, Beacon 29.352 USB
JAS-2 21 Apr 18:35:28 18:39:54 24° 68° (ENE) 18:44:05 435.800 - 435.900 CW/SSB, 435.910 FM
AO-7 21 Apr 18:37:42 18:43:20 20° 266° (W) 18:49:01 29.400 - 29.500 MHz
STRAND 1 21 Apr 18:39:20 18:41:10 12° 91° (E) 18:43:00 ?
SO-67 21 Apr 19:17:54 19:20:56 29° 73° (ENE) 19:23:59 435.3500 MHz FM
Hamsat 21 Apr 19:26:23 19:30:05 30° 263° (W) 19:33:50 145.90 MHz
Saudisat 1A 21 Apr 19:47:51 19:52:06 45° 56° (ENE) 19:56:18 436.775 MHz
STRAND 1 21 Apr 20:15:43 20:20:46 66° 286° (WNW) 20:25:48 ?
JAS-2 21 Apr 20:19:23 20:24:50 38° 261° (W) 20:29:51 435.800 - 435.900 CW/SSB, 435.910 FM
HO-68 21 Apr 20:31:38 20:37:33 29° 63° (ENE) 20:43:29 435.675 MHz FM
ISS 21 Apr 20:42:06 20:44:20 17° 28° (NNE) 20:46:35 145.800 FM
MaSat-1 21 Apr 20:44:12 20:46:20 18° 110° (ESE) 20:48:18 437.345 MHz
SO-67 21 Apr 20:52:35 20:54:08 12° 267° (W) 20:55:41 435.3500 MHz FM
Oscar 11 21 Apr 21:11:22 21:13:33 14° 66° (ENE) 21:15:45 145.825 FM, Beacon 2401.500 USB
Saudisat 1A 21 Apr 21:28:49 21:31:17 15° 251° (WSW) 21:33:44 436.775 MHz
